Regional Weather Roundup
Issued by NWS

Home | Current Version | Previous Version | Text Only | Print | Product List | Glossary On
Versions: 1 2 3 4 5 6 7 8 9 10 11 12 13 14 15 16 17 18 19 20 21 22 23 24 25 26 27 28 29 30 31 32 33 34 35 36 37 38 39 40 41 42 43 44 45 46 47 48 49 50
000
ASUS45 KPSR 061210
RWRAZ

ARIZONA HOURLY REGIONAL WEATHER ROUNDUP
NATIONAL WEATHER SERVICE PHOENIX AZ
500 AM MST MON JUL 06 2015

NOTE: FAIR INDICATES FEW OR NO CLOUDS BELOW 12,000 FEET WITH NO
SIGNIFICANT WEATHER AND/OR OBSTRUCTIONS TO VISIBILITY.

AZZ001>003-036-061300-
NORTHWEST ARIZONA

CITY           SKY/WX    TMP DP  RH WIND       PRES   REMARKS
BULLHEAD CITY  PTCLDY    82  63  51 S7        29.93S
KINGMAN        PTCLDY    70  60  70 SE15      30.09S
6HR MIN TEMP:  69; 6HR MAX TEMP:  79; 6HR PCP:  0.01;

$$

AZZ004>008-015-016-018-061300-
NORTH CENTRAL ARIZONA

CITY           SKY/WX    TMP DP  RH WIND       PRES   REMARKS
GRAND CANYON   CLOUDY    57  54  89 CALM      30.31R
6HR MIN TEMP:  56; 6HR MAX TEMP:  62;

WILLIAMS       CLOUDY    59  52  77 W3G13     30.37R
PRESCOTT       MOCLDY    64  55  72 S6        30.19F
6HR MIN TEMP:  62; 6HR MAX TEMP:  66; 6HR PCP: TRACE;

FLAGSTAFF      CLOUDY    54  52  93 CALM      30.30S
6HR MIN TEMP:  53; 6HR MAX TEMP:  59; 6HR PCP:  0.03;

PAYSON         PTCLDY    64  57  77 CALM      30.22S
PAGE           MOCLDY    78  48  34 W3        30.09R
6HR MIN TEMP:  77; 6HR MAX TEMP:  82;

$$

AZZ009>014-017-061300-
NORTHEAST ARIZONA

CITY           SKY/WX    TMP DP  RH WIND       PRES   REMARKS
WINSLOW        MOCLDY    65  59  81 NW3       30.16R
6HR MIN TEMP:  65; 6HR MAX TEMP:  70;

SAINT JOHNS    CLOUDY    64  54  69 CALM      30.20S
6HR MIN TEMP:  62; 6HR MAX TEMP:  68;

WINDOW ROCK    PTCLDY    59  53  80 CALM      30.27R
6HR MIN TEMP:  57; 6HR MAX TEMP:  62;

SHOW LOW       CLOUDY    57  52  82 S7        30.28R
$$

AZZ023-061300-
GREATER PHOENIX AREA

CITY           SKY/WX    TMP DP  RH WIND       PRES   REMARKS
PHOENIX        CLOUDY    84  66  54 SW9       29.96R THUNDER
6HR MIN TEMP:  84; 6HR MAX TEMP:  85;

BUCKEYE          N/A     75  72  88 CALM      29.96F
LUKE AFB       CLOUDY    84  68  58 S10       29.98R THUNDER
DEER VALLEY    CLOUDY    82  65  56 CALM      29.97R
6HR MIN TEMP:  81; 6HR MAX TEMP:  83; 6HR PCP: TRACE;

SCOTTSDALE     MOCLDY    82  68  62 CALM      29.99R
6HR MIN TEMP:  81; 6HR MAX TEMP:  84;

MESA-GATEWAY   MOCLDY    79  70  73 E5        30.00R
$$

AZZ027-028-061300-
SOUTHWEST MARICOPA COUNTY AND PINAL COUNTY

CITY           SKY/WX    TMP DP  RH WIND       PRES   REMARKS
CASA GRANDE    PTCLDY    75  70  83 CALM      29.97R
6HR MIN TEMP:  75; 6HR MAX TEMP:  79;

GILA BEND      MOCLDY    82  66  58 N16       29.95R
6HR MIN TEMP:  82; 6HR MAX TEMP:  90;

$$

AZZ503-504-507>509-061300-
SOUTHEAST ARIZONA

CITY           SKY/WX    TMP DP  RH WIND       PRES   REMARKS
TUCSON         MOCLDY    76  64  66 CALM      30.07S
6HR MIN TEMP:  75; 6HR MAX TEMP:  79;

DAVIS-MONTHAN  MOCLDY    74  66  75 SE2       30.06R
6HR MIN TEMP:  73; 6HR MAX TEMP:  76;

NOGALES        MOCLDY    67  62  84 CALM      30.15R
6HR MIN TEMP:  67; 6HR MAX TEMP:  72;

SIERRA VISTA   CLOUDY    69  62  77 SW5       30.19S
6HR MIN TEMP:  66; 6HR MAX TEMP:  71;

DOUGLAS        MOCLDY    67  63  87 E3        30.15R
6HR MIN TEMP:  66; 6HR MAX TEMP:  70;

SAFFORD        CLOUDY    71  67  87 CALM      30.06R
6HR MIN TEMP:  70; 6HR MAX TEMP:  72;

$$

AZZ020-021-025-026-031-061300-
SOUTHWEST ARIZONA

CITY           SKY/WX    TMP DP  RH WIND       PRES   REMARKS
YUMA           CLEAR     87  58  37 E9        29.87R
6HR MIN TEMP:  85; 6HR MAX TEMP:  90;

$$

CAZ031-033-041-043-047-048-061-061300-
SOUTHERN CALIFORNIA

CITY           SKY/WX    TMP DP  RH WIND       PRES   REMARKS
DOWNTOWN L.A.  CLOUDY    65  59  81 CALM      30.01S
6HR MIN TEMP:  64; 6HR MAX TEMP:  66;

L.A. AIRPORT   CLOUDY    64  59  83 W5        30.02S
6HR MIN TEMP:  63; 6HR MAX TEMP:  65;

SAN DIEGO      CLOUDY    67  58  72 CALM      30.03R
6HR MIN TEMP:  66; 6HR MAX TEMP:  68;

BURBANK        CLOUDY    65  58  78 CALM      30.01S
6HR MIN TEMP:  64; 6HR MAX TEMP:  65;

ONTARIO        CLOUDY    64  58  80 S6        30.01S
6HR MIN TEMP:  64; 6HR MAX TEMP:  66;

RIVERSIDE      CLOUDY    65  59  81 SW3       30.02S
6HR MIN TEMP:  64; 6HR MAX TEMP:  65;

PALM SPRINGS   CLEAR     78  60  53 CALM      29.91R
6HR MIN TEMP:  78; 6HR MAX TEMP:  89;

EL CENTRO NAS  CLEAR     79  61  53 E6        29.86R
6HR MIN TEMP:  78; 6HR MAX TEMP:  88;

IMPERIAL       CLEAR     81  62  52 E3        29.84R
6HR MIN TEMP:  81; 6HR MAX TEMP:  91;

BLYTHE         CLEAR     84  66  54 NE13      29.88S
6HR MIN TEMP:  84; 6HR MAX TEMP:  94;

NEEDLES        PTCLDY    85  61  44 NE3       29.92S
6HR MIN TEMP:  85; 6HR MAX TEMP:  94;

$$

NVZ020-UTZ003-061300-
SOUTHERN NEVADA-UTAH

CITY           SKY/WX    TMP DP  RH WIND       PRES   REMARKS
LAS VEGAS      CLOUDY    85  51  31 S15       29.92S
6HR MIN TEMP:  84; 6HR MAX TEMP:  87;

SALT LAKE CITY PTCLDY    70  56  61 SE8       30.08R
6HR MIN TEMP:  68; 6HR MAX TEMP:  76;

$$

NMZ009-TXZ055-061300-
NEW MEXICO-WEST TEXAS

CITY           SKY/WX    TMP DP  RH WIND       PRES   REMARKS
ALBUQUERQUE    MOCLDY    67  60  78 SW5       30.14R
6HR MIN TEMP:  67; 6HR MAX TEMP:  70; 6HR PCP: TRACE;

EL PASO        MOCLDY    75  60  59 W17       30.03S
6HR MIN TEMP:  75; 6HR MAX TEMP:  84;

$$


........................KEY........................
SKY/WX - SKY CONDITION/WEATHER
TMP    - TEMPERATURE IN FAHRENHEIT
DP     - DEW POINT IN FAHRENHEIT
RH     - RELATIVE HUMIDITY IN PERCENT
WIND   - DIRECTION AND SPEED IN MILES PER HOUR (MPH)
VRB    - VARIABLE WIND DIRECTION
PRES   - MEAN SEA LEVEL PRESSURE IN INCHES OF MERCURY
         F - FALLING PRESSURE   R - RISING PRESSURE
         S - STEADY PRESSURE
VSB    - VISIBILITY IN MILES
HX     - HEAT INDEX IN FAHRENHEIT
WCI    - WIND CHILL INDEX IN FAHRENHEIT
TC     - TEMPERATURE IN CELSIUS WHICH IS ALSO KNOWN AS
         TEMPERATURE IN CENTIGRADE
AFB    - AIR FORCE BASE
         LUKE AFB IS LUKE AIR FORCE BASE
         DAVIS-MONTHAN IS DAVIS-MONTHAN AIR FORCE BASE
NAS    - NAVAL AIR STATION
         EL CENTRO NAS IS EL CENTRO NAVAL AIR STATION
N/A    - NOT AVAILABLE




USA.gov is the U.S. government's official web portal to all federal, state and local government web resources and services.